Regional Weather Roundup
Issued by NWS

Home | Current Version | Previous Version | Graphics & Text | Print | Product List | Glossary On
Versions: 1 2 3 4 5 6 7 8 9 10 11 12 13 14 15 16 17 18 19 20 21 22 23 24 25 26 27 28 29 30 31 32 33 34 35 36 37 38 39 40 41 42 43 44 45 46 47 48 49 50
000
ASUS43 KMKX 251021
RWRWI

WISCONSIN REGIONAL WEATHER ROUNDUP
NATIONAL WEATHER SERVICE MILWAUKEE/SULLIVAN WI
400 AM CST SAT NOV 25 2017

NOTE: "FAIR" INDICATES FEW OR NO CLOUDS BELOW 12,000 FEET WITH NO
SIGNIFICANT WEATHER AND/OR OBSTRUCTIONS TO VISIBILITY.

WIZ001-002-006>008-014>016-023>028-251100-
NORTHWEST WISCONSIN

CITY           SKY/WX    TMP DP  RH WIND       PRES   REMARKS
SUPERIOR ARPT  CLEAR     32  21  64 NW13G25   29.81R WCI  22
ASHLAND        CLOUDY    33  20  58 NW15G22   29.74R WCI  23
HAYWARD        CLOUDY    36  24  62 NW12G22   29.76R WCI  28
SIREN          MOCLDY    34  27  77 W12       29.80R WCI  25
CUMBERLAND     CLEAR     32  28  86 NW13G22   29.77R WCI  22
RICE LAKE      CLEAR     34  30  85 CALM      29.78R
CHETEK         PTCLDY    34  29  82 W3        29.77R
LADYSMITH      PTCLDY    36  28  72 W16       29.75R WCI  26
EAU CLAIRE     CLEAR     34  30  85 W9        29.78R WCI  27
MENOMONIE      CLEAR     36  32  84 W9        29.80R WCI  29
NEW RICHMOND   CLEAR     34  29  82 W10       29.81R WCI  26
OSCEOLA        CLEAR     36  29  78 W13       29.86R WCI  27
$$

WIZ003>005-009-010-017-018-251100-
NORTH CENTRAL WISCONSIN

CITY           SKY/WX    TMP DP  RH WIND       PRES   REMARKS
MANITOWISH WTR CLOUDY    32  26  76 NW16G25   29.65R WCI  22
ARBOR VITAE    PTCLDY    37  32  83 NW13G22   29.62R WCI  28
WOODRUFF       PTCLDY    37  32  83 NW13G22   29.62R WCI  28
RHINELANDER    CLOUDY    36  31  82 W15       29.63R WCI  27
EAGLE RIVER    CLOUDY    36  29  76 W21G31    29.62R WCI  25
LAND O LAKES   LGT SNOW  35  32  90 NW16G23   29.62R WCI  25
PHILLIPS       CLOUDY    35  28  78 W7G17     29.69R WCI  29
TOMAHAWK       CLOUDY    34  29  80 W12G18    29.67R WCI  26
MEDFORD        CLEAR     33  29  86 W12G18    29.70R WCI  24
MERRILL        CLOUDY    36  31  82 W9        29.69R WCI  29
$$

WIZ029-030-035-036-043>047-251100-
CENTRAL WISCONSIN

CITY           SKY/WX    TMP DP  RH WIND       PRES   REMARKS
WAUSAU         CLEAR     34  30  85 W14       29.69R WCI  25
MOSINEE        CLEAR     32  32 100 W8        29.71R WCI  25
MARSHFIELD     PTCLDY    34  30  85 W10       29.72R WCI  26
STEVENS POINT  CLEAR     34  32  92 W9        29.72R WCI  27
WAUPACA        CLEAR     40  33  77 W14       29.72R WCI  32
WAUTOMA        PTCLDY    38  33  82 W12       29.74R WCI  30
WISC RAPIDS    CLEAR     36  32  85 W9        29.75R WCI  29
CAMP DOUGLAS   MOCLDY    39  33  81 W14G22    29.77R WCI  31
$$

WIZ011>013-019>022-031-037>040-048>050-251100-
NORTHEAST WISCONSIN

CITY           SKY/WX    TMP DP  RH WIND       PRES   REMARKS
ANTIGO         CLOUDY    35  31  83 W12G18    29.66R WCI  27
SHAWANO        CLOUDY    42  32  67 W9G17     29.68R
OCONTO         MOCLDY    39  32  75 W10G16    29.64R WCI  33
STURGEON BAY   CLOUDY    41  34  76 W7        29.63R
GREEN BAY      MOCLDY    41  34  76 W10       29.67R
MANITOWOC      PTCLDY    42  32  67 W7        29.68R
APPLETON       CLEAR     37  28  70 W16       29.69R WCI  28
CLINTONVILLE   CLOUDY    39  30  70 W12       29.69R WCI  32
OSHKOSH        PTCLDY    40  34  79 W10       29.71R WCI  33
$$

WIZ032>034-041-042-053>061-251100-
SOUTHWEST WISCONSIN

CITY           SKY/WX    TMP DP  RH WIND       PRES   REMARKS
LA CROSSE      PTCLDY    40  33  76 W7        29.81S
SPARTA         PTCLDY    38  33  84 W5        29.80R WCI  34
VIROQUA        PTCLDY    37  34  91 W7        29.80R WCI  31
BOSCOBEL       PTCLDY    40  32  73 SW7       29.83R
PRAIRIE DU CHI CLOUDY    38  31  77 NW3       29.86R
PLATTEVILLE    CLEAR     37  34  90 W8        29.83R WCI  30
$$

WIZ056-057-062-063-064-067-068-251100-
SOUTH CENTRAL WISCONSIN

CITY           SKY/WX    TMP DP  RH WIND       PRES   REMARKS
REEDSBURG      CLOUDY    39  33  77 W9        29.78R WCI  33
BARABOO/DELLS  CLOUDY    39  32  76 W6        29.77R WCI  35
LONE ROCK      MOCLDY    37  34  89 W6        29.80R WCI  32
MINERAL POINT  PTCLDY    37  36  93 W10       29.81R WCI  30
MADISON        CLEAR     40  32  73 W7        29.78R
MIDDLETON      CLEAR     41  34  75 W9G16     29.79R
WATERTOWN      CLEAR     40  35  81 W12G17    29.75R WCI  33
MONROE         CLEAR     39  32  75 W14       29.80R WCI  31
JANESVILLE     CLOUDY    39  36  87 W7        29.78R WCI  34
$$

WIZ051-052-058>065-066-070>072-251100-
SOUTHEAST WISCONSIN

CITY           SKY/WX    TMP DP  RH WIND       PRES   REMARKS
MILWAUKEE      MOCLDY    46  37  71 W9        29.72R
WAUKESHA       CLEAR     37  34  87 W13G20    29.74R WCI  29
MILWAUKEE/TIMM MOCLDY    43  32  65 W15       29.73R
RACINE         MOCLDY    44  36  73 W8        29.75R
BURLINGTON     CLEAR     44  40  85 W10       29.75R
KENOSHA        PTCLDY    42  35  76 W10       29.74R
FOND DU LAC    PTCLDY    41  34  76 W14       29.72R
SHEBOYGAN      CLOUDY    43  34  70 W9        29.69R
WEST BEND      CLOUDY    41  36  81 W12       29.71R
JUNEAU         PTCLDY    38  33  79 W7        29.75R WCI  33
$$

LSZ147-162-251100-
LAKE SUPERIOR

STATION/POSITION TIME  TEMP    WIND        PRES    WAVE
                       AIR SEA DIR/SP/G            HT/PER
                 (UTC) (F)     (DEG/KT/KT) (MB)    (FT/S)
DEVILS ISLAND    1000   34     290/ 22/ 27 1007.2R
SAXON HARBOR     0940   37     310/ 19/ 24 1006.1R
$$

LMZ867-665-643>646-251100-
LAKE MICHIGAN

STATION/POSITION TIME  TEMP    WIND        PRES    WAVE
                       AIR SEA DIR/SP/G            HT/PER
                 (UTC) (F)     (DEG/KT/KT) (MB)    (FT/S)
N MID LAKE BUOY  0950   43 47  280/ 14/ 17 1002.8R   4/ 8
NORTHPORT PIER   0940   42     290/  5/  9 1002.4R
KEWAUNEE LAKESHO 0954   41     280/  6/  8 1003.2R
SHEBOYGAN LAKESH 1000   44     280/ 10/ 11 1005.6R
PORT WASHINGTON  0930   44     290/  5/  8 1006.4R
MILWAUKEE LAKESH 1000   44     290/ 10/ 14   N/A
S MID LAKE BUOY  0950   47 47  330/ 19/ 23 1005.8R   4/ 5
KENOSHA   LAKESH 1000   45     290/ 11/ 14 1007.1
$$

TC  - TEMPERATURE IN CELSIUS
VSB - VISIBILITY IN STATUTE MILES
WCI - WIND CHILL INDEX
HX  - HEAT INDEX





USA.gov is the U.S. government's official web portal to all federal, state and local government web resources and services.